Time,TemperatureF,DewpointF,PressureIn,WindDirection,WindDirectionDegrees,WindSpeedMPH,WindSpeedGustMPH,Humidity,HourlyPrecipIn,Conditions,Clouds,dailyrainin,SoftwareType,DateUTC
2013-06-06 00:02:00,60.3,50.9,30.36,NNW,338,0.0,0.9,71,0.00,,,0.00,WUHU216HW,2013-06-06 07:02:00,
2013-06-06 00:07:00,60.1,50.8,30.36,NNW,338,0.0,0.9,71,0.00,,,0.00,WUHU216HW,2013-06-06 07:07:00,
2013-06-06 00:12:00,60.1,50.8,30.36,NNW,338,0.0,0.0,71,0.00,,,0.00,WUHU216HW,2013-06-06 07:12:00,
2013-06-06 00:17:00,60.1,50.4,30.36,NNW,338,0.0,0.0,70,0.00,,,0.00,WUHU216HW,2013-06-06 07:17:00,
2013-06-06 00:22:00,60.1,50.8,30.36,NNW,338,0.0,0.0,71,0.00,,,0.00,WUHU216HW,2013-06-06 07:22:00,
2013-06-06 00:27:00,60.1,50.4,30.36,NNW,338,0.0,0.0,70,0.00,,,0.00,WUHU216HW,2013-06-06 07:27:00,
2013-06-06 00:32:00,60.1,50.4,30.36,NNW,338,0.0,0.0,70,0.00,,,0.00,WUHU216HW,2013-06-06 07:32:00,
2013-06-06 00:37:00,59.9,50.2,30.36,NNW,338,0.0,0.0,70,0.00,,,0.00,WUHU216HW,2013-06-06 07:37:00,
2013-06-06 00:42:00,59.9,50.2,30.36,NNW,338,0.0,0.0,70,0.00,,,0.00,WUHU216HW,2013-06-06 07:42:00,
2013-06-06 00:47:00,59.8,50.4,30.36,NNW,338,0.0,0.0,71,0.00,,,0.00,WUHU216HW,2013-06-06 07:47:00,
2013-06-06 00:52:00,59.6,50.2,30.36,NNW,338,0.0,0.0,71,0.00,,,0.00,WUHU216HW,2013-06-06 07:52:00,
2013-06-06 00:57:00,59.4,50.0,30.36,NNW,338,0.0,0.0,71,0.00,,,0.00,WUHU216HW,2013-06-06 07:57:00,
2013-06-06 01:02:00,59.2,49.9,30.35,NNW,338,0.0,0.0,71,0.00,,,0.00,WUHU216HW,2013-06-06 08:02:00,
2013-06-06 01:07:00,59.0,50.0,30.35,NNW,338,0.0,0.0,72,0.00,,,0.00,WUHU216HW,2013-06-06 08:07:00,
2013-06-06 01:12:00,58.7,49.7,30.36,NNW,338,0.0,0.0,72,0.00,,,0.00,WUHU216HW,2013-06-06 08:12:00,
2013-06-06 01:17:00,58.7,50.0,30.36,NNW,338,0.0,0.0,73,0.00,,,0.00,WUHU216HW,2013-06-06 08:17:00,
2013-06-06 01:22:00,58.5,49.9,30.36,NNW,338,0.0,0.0,73,0.00,,,0.00,WUHU216HW,2013-06-06 08:22:00,
2013-06-06 01:27:00,58.3,49.7,30.36,NNW,338,0.0,0.0,73,0.00,,,0.00,WUHU216HW,2013-06-06 08:27:00,
2013-06-06 01:32:00,58.1,49.5,30.36,NNW,338,0.0,0.0,73,0.00,,,0.00,WUHU216HW,2013-06-06 08:32:00,
2013-06-06 01:37:00,58.1,49.9,30.36,NNW,338,0.0,0.0,74,0.00,,,0.00,WUHU216HW,2013-06-06 08:37:00,
2013-06-06 01:42:00,58.0,49.7,30.36,NNW,338,0.0,0.0,74,0.00,,,0.00,WUHU216HW,2013-06-06 08:42:00,
2013-06-06 01:47:00,58.0,49.7,30.36,NNW,338,0.0,0.0,74,0.00,,,0.00,WUHU216HW,2013-06-06 08:47:00,
2013-06-06 01:52:00,57.8,49.9,30.36,NNW,338,0.0,0.0,75,0.00,,,0.00,WUHU216HW,2013-06-06 08:52:00,
2013-06-06 01:57:00,57.8,49.9,30.36,NNW,338,0.0,0.0,75,0.00,,,0.00,WUHU216HW,2013-06-06 08:57:00,
2013-06-06 02:02:00,57.6,49.7,30.36,NNW,338,0.0,0.0,75,0.00,,,0.00,WUHU216HW,2013-06-06 09:02:00,
2013-06-06 02:07:00,57.6,49.7,30.36,NNW,338,0.0,0.0,75,0.00,,,0.00,WUHU216HW,2013-06-06 09:07:00,
2013-06-06 02:12:00,57.6,49.7,30.36,NNW,338,0.0,0.0,75,0.00,,,0.00,WUHU216HW,2013-06-06 09:12:00,
2013-06-06 02:17:00,57.4,49.5,30.35,NNW,338,0.0,0.0,75,0.00,,,0.00,WUHU216HW,2013-06-06 09:17:00,
2013-06-06 02:22:00,57.4,49.5,30.35,NNW,338,0.0,0.0,75,0.00,,,0.00,WUHU216HW,2013-06-06 09:22:00,
2013-06-06 02:27:00,57.2,49.3,30.35,NNW,338,0.0,0.0,75,0.00,,,0.00,WUHU216HW,2013-06-06 09:27:00,
2013-06-06 02:32:00,57.2,49.3,30.35,NNW,338,0.0,0.0,75,0.00,,,0.00,WUHU216HW,2013-06-06 09:32:00,
2013-06-06 02:37:00,56.9,49.3,30.35,NNW,338,0.0,0.0,76,0.00,,,0.00,WUHU216HW,2013-06-06 09:37:00,
2013-06-06 02:42:00,56.9,49.3,30.35,NNW,338,0.0,0.0,76,0.00,,,0.00,WUHU216HW,2013-06-06 09:42:00,
2013-06-06 02:47:00,56.7,49.1,30.35,NNW,338,0.0,0.0,76,0.00,,,0.00,WUHU216HW,2013-06-06 09:47:00,
2013-06-06 02:52:00,56.7,49.1,30.35,NNW,338,0.0,0.0,76,0.00,,,0.00,WUHU216HW,2013-06-06 09:52:00,
2013-06-06 02:57:00,56.5,49.0,30.35,NNW,338,0.0,0.0,76,0.00,,,0.00,WUHU216HW,2013-06-06 09:57:00,
2013-06-06 03:02:00,56.3,49.1,30.35,NNW,338,0.0,0.0,77,0.00,,,0.00,WUHU216HW,2013-06-06 10:02:00,
2013-06-06 03:07:00,56.2,49.0,30.35,NNW,338,0.0,0.0,77,0.00,,,0.00,WUHU216HW,2013-06-06 10:07:00,
2013-06-06 03:12:00,56.0,49.1,30.35,NNW,338,0.0,0.0,78,0.00,,,0.00,WUHU216HW,2013-06-06 10:12:00,
2013-06-06 03:17:00,55.8,48.6,30.35,NNW,338,0.0,0.0,77,0.00,,,0.00,WUHU216HW,2013-06-06 10:17:00,
2013-06-06 03:22:00,55.8,49.0,30.35,NNW,338,0.0,0.0,78,0.00,,,0.00,WUHU216HW,2013-06-06 10:22:00,
2013-06-06 03:27:00,55.8,49.0,30.35,NNW,338,0.0,0.0,78,0.00,,,0.00,WUHU216HW,2013-06-06 10:27:00,
2013-06-06 03:32:00,55.6,48.8,30.35,NNW,338,0.0,0.0,78,0.00,,,0.00,WUHU216HW,2013-06-06 10:32:00,
2013-06-06 03:37:00,55.4,49.0,30.35,NNW,338,0.0,0.0,79,0.00,,,0.00,WUHU216HW,2013-06-06 10:37:00,
2013-06-06 03:42:00,55.4,49.0,30.35,NNW,338,0.0,0.0,79,0.00,,,0.00,WUHU216HW,2013-06-06 10:42:00,
2013-06-06 03:47:00,55.4,49.0,30.35,NNW,338,0.0,0.0,79,0.00,,,0.00,WUHU216HW,2013-06-06 10:47:00,
2013-06-06 03:52:00,55.4,49.0,30.35,NNW,338,0.0,0.0,79,0.00,,,0.00,WUHU216HW,2013-06-06 10:52:00,
2013-06-06 03:57:00,55.4,49.0,30.35,NNW,338,0.0,0.0,79,0.00,,,0.00,WUHU216HW,2013-06-06 10:57:00,
2013-06-06 04:02:00,55.4,48.6,30.35,NNW,338,0.0,0.0,78,0.00,,,0.00,WUHU216HW,2013-06-06 11:02:00,
2013-06-06 04:07:00,55.3,48.5,30.35,NNW,338,0.0,0.0,78,0.00,,,0.00,WUHU216HW,2013-06-06 11:07:00,
2013-06-06 04:12:00,55.3,48.5,30.35,NNW,338,0.0,0.0,78,0.00,,,0.00,WUHU216HW,2013-06-06 11:12:00,
2013-06-06 04:17:00,55.4,49.0,30.35,NNW,338,0.0,0.0,79,0.00,,,0.00,WUHU216HW,2013-06-06 11:17:00,
2013-06-06 04:22:00,55.4,48.6,30.35,NNW,338,0.0,0.0,78,0.00,,,0.00,WUHU216HW,2013-06-06 11:22:00,
2013-06-06 04:27:00,55.4,48.6,30.35,NNW,338,0.0,0.0,78,0.00,,,0.00,WUHU216HW,2013-06-06 11:27:00,
2013-06-06 04:32:00,55.3,48.5,30.35,NNW,338,0.0,0.0,78,0.00,,,0.00,WUHU216HW,2013-06-06 11:32:00,
2013-06-06 04:37:00,55.3,48.5,30.36,NNW,338,0.0,0.0,78,0.00,,,0.00,WUHU216HW,2013-06-06 11:37:00,
2013-06-06 04:42:00,55.1,48.7,30.35,NNW,338,0.0,0.0,79,0.00,,,0.00,WUHU216HW,2013-06-06 11:42:00,
2013-06-06 04:47:00,54.9,48.5,30.36,NNW,338,0.0,0.0,79,0.00,,,0.00,WUHU216HW,2013-06-06 11:47:00,
2013-06-06 04:52:00,54.5,48.2,30.35,NNW,338,0.0,0.0,79,0.00,,,0.00,WUHU216HW,2013-06-06 11:52:00,
2013-06-06 04:57:00,54.5,48.2,30.35,NNW,338,0.0,0.0,79,0.00,,,0.00,WUHU216HW,2013-06-06 11:57:00,
2013-06-06 05:02:00,54.5,48.5,30.35,NNW,338,0.0,0.0,80,0.00,,,0.00,WUHU216HW,2013-06-06 12:02:00,
2013-06-06 05:07:00,54.5,48.5,30.35,NNW,338,0.0,0.0,80,0.00,,,0.00,WUHU216HW,2013-06-06 12:07:00,
2013-06-06 05:12:00,54.5,48.5,30.35,NNW,338,0.0,0.0,80,0.00,,,0.00,WUHU216HW,2013-06-06 12:12:00,
2013-06-06 05:17:00,54.4,48.3,30.35,NNW,338,0.0,0.0,80,0.00,,,0.00,WUHU216HW,2013-06-06 12:17:00,
2013-06-06 05:22:00,54.4,48.3,30.35,NNW,338,0.0,0.0,80,0.00,,,0.00,WUHU216HW,2013-06-06 12:22:00,
2013-06-06 05:27:00,54.4,48.3,30.35,NNW,338,0.0,0.0,80,0.00,,,0.00,WUHU216HW,2013-06-06 12:27:00,
2013-06-06 05:32:00,54.5,48.5,30.35,NNW,338,0.0,0.0,80,0.00,,,0.00,WUHU216HW,2013-06-06 12:32:00,
2013-06-06 05:37:00,54.4,48.3,30.35,NNW,338,0.0,0.0,80,0.00,,,0.00,WUHU216HW,2013-06-06 12:37:00,
2013-06-06 05:42:00,54.4,48.3,30.35,NNW,338,0.0,0.0,80,0.00,,,0.00,WUHU216HW,2013-06-06 12:42:00,
2013-06-06 05:47:00,54.4,48.3,30.35,NNW,338,0.0,0.0,80,0.00,,,0.00,WUHU216HW,2013-06-06 12:47:00,
2013-06-06 05:52:00,54.4,48.3,30.36,NNW,338,0.0,0.0,80,0.00,,,0.00,WUHU216HW,2013-06-06 12:52:00,
2013-06-06 05:57:00,54.4,48.3,30.36,NNW,338,0.0,0.0,80,0.00,,,0.00,WUHU216HW,2013-06-06 12:57:00,
2013-06-06 06:02:00,54.4,48.3,30.36,NNW,338,0.0,0.0,80,0.00,,,0.00,WUHU216HW,2013-06-06 13:02:00,
2013-06-06 06:07:00,54.2,48.2,30.36,NNW,338,0.0,0.0,80,0.00,,,0.00,WUHU216HW,2013-06-06 13:07:00,
2013-06-06 06:12:00,54.2,48.2,30.36,NNW,338,0.0,0.0,80,0.00,,,0.00,WUHU216HW,2013-06-06 13:12:00,
2013-06-06 06:17:00,54.2,48.5,30.36,NNW,338,0.0,0.0,81,0.00,,,0.00,WUHU216HW,2013-06-06 13:17:00,
2013-06-06 06:22:00,54.2,48.5,30.36,NNW,338,0.0,0.0,81,0.00,,,0.00,WUHU216HW,2013-06-06 13:22:00,
2013-06-06 06:27:00,54.2,48.5,30.36,NNW,338,0.0,0.0,81,0.00,,,0.00,WUHU216HW,2013-06-06 13:27:00,
2013-06-06 06:32:00,54.2,48.5,30.36,NNW,338,0.0,0.0,81,0.00,,,0.00,WUHU216HW,2013-06-06 13:32:00,
2013-06-06 06:37:00,54.0,48.3,30.37,NNW,338,0.0,0.0,81,0.00,,,0.00,WUHU216HW,2013-06-06 13:37:00,
2013-06-06 06:42:00,54.0,48.3,30.37,NNW,338,0.0,0.0,81,0.00,,,0.00,WUHU216HW,2013-06-06 13:42:00,
2013-06-06 06:47:00,54.0,48.6,30.37,NNW,338,0.0,0.0,82,0.00,,,0.00,WUHU216HW,2013-06-06 13:47:00,
2013-06-06 06:52:00,54.2,48.8,30.37,NNW,338,0.0,0.0,82,0.00,,,0.00,WUHU216HW,2013-06-06 13:52:00,
2013-06-06 06:57:00,54.2,48.8,30.37,NNW,338,0.0,0.0,82,0.00,,,0.00,WUHU216HW,2013-06-06 13:57:00,
2013-06-06 07:02:00,54.2,48.8,30.37,NNW,338,0.0,0.0,82,0.00,,,0.00,WUHU216HW,2013-06-06 14:02:00,
2013-06-06 07:07:00,54.4,49.0,30.37,NNW,338,0.0,0.0,82,0.00,,,0.00,WUHU216HW,2013-06-06 14:07:00,
2013-06-06 07:12:00,54.4,49.0,30.37,NNW,338,0.0,0.0,82,0.00,,,0.00,WUHU216HW,2013-06-06 14:12:00,
2013-06-06 07:17:00,54.5,49.1,30.37,NNW,338,0.0,0.0,82,0.00,,,0.00,WUHU216HW,2013-06-06 14:17:00,
2013-06-06 07:22:00,54.7,49.3,30.37,NNW,338,0.0,0.0,82,0.00,,,0.00,WUHU216HW,2013-06-06 14:22:00,
2013-06-06 07:27:00,54.9,49.5,30.37,NNW,338,0.0,0.0,82,0.00,,,0.00,WUHU216HW,2013-06-06 14:27:00,
2013-06-06 07:32:00,54.9,49.5,30.37,NNW,338,0.0,0.0,82,0.00,,,0.00,WUHU216HW,2013-06-06 14:32:00,
2013-06-06 07:37:00,55.1,49.7,30.37,NNW,338,0.0,0.0,82,0.00,,,0.00,WUHU216HW,2013-06-06 14:37:00,
2013-06-06 07:42:00,55.1,49.7,30.37,ENE,68,0.2,0.2,82,0.00,,,0.00,WUHU216HW,2013-06-06 14:42:00,
2013-06-06 07:47:00,55.3,49.8,30.37,ENE,68,0.0,0.2,82,0.00,,,0.00,WUHU216HW,2013-06-06 14:47:00,
2013-06-06 07:52:00,55.4,50.0,30.37,ENE,68,0.0,0.0,82,0.00,,,0.00,WUHU216HW,2013-06-06 14:52:00,
2013-06-06 07:57:00,55.6,50.1,30.37,ENE,68,0.0,0.0,82,0.00,,,0.00,WUHU216HW,2013-06-06 14:57:00,
2013-06-06 08:02:00,55.8,50.3,30.37,ENE,68,0.0,0.0,82,0.00,,,0.00,WUHU216HW,2013-06-06 15:02:00,
2013-06-06 08:07:00,56.0,50.5,30.37,ENE,68,0.0,0.0,82,0.00,,,0.00,WUHU216HW,2013-06-06 15:07:00,
2013-06-06 08:12:00,56.2,50.7,30.37,SSW,203,0.0,0.4,82,0.00,,,0.00,WUHU216HW,2013-06-06 15:12:00,
2013-06-06 08:17:00,56.5,51.0,30.37,SSW,203,0.4,0.4,82,0.00,,,0.00,WUHU216HW,2013-06-06 15:17:00,
2013-06-06 08:22:00,56.7,51.6,30.37,SSW,203,0.0,0.4,83,0.00,,,0.00,WUHU216HW,2013-06-06 15:22:00,
2013-06-06 08:27:00,56.9,51.8,30.37,SSW,203,1.3,1.3,83,0.00,,,0.00,WUHU216HW,2013-06-06 15:27:00,
2013-06-06 08:32:00,57.2,52.1,30.37,SSE,158,0.0,1.3,83,0.00,,,0.00,WUHU216HW,2013-06-06 15:32:00,
2013-06-06 08:37:00,57.4,52.3,30.37,SSW,203,1.3,2.0,83,0.00,,,0.00,WUHU216HW,2013-06-06 15:37:00,
2013-06-06 08:42:00,58.0,52.5,30.37,SSW,203,1.8,2.9,82,0.00,,,0.00,WUHU216HW,2013-06-06 15:42:00,
2013-06-06 08:47:00,58.1,52.7,30.37,SSW,203,2.2,2.9,82,0.00,,,0.00,WUHU216HW,2013-06-06 15:47:00,
2013-06-06 08:52:00,58.7,52.9,30.37,SSW,203,0.9,2.5,81,0.00,,,0.00,WUHU216HW,2013-06-06 15:52:00,
2013-06-06 08:57:00,59.0,52.9,30.37,SW,225,0.0,2.7,80,0.00,,,0.00,WUHU216HW,2013-06-06 15:57:00,
2013-06-06 09:02:00,59.2,53.1,30.37,South,180,0.0,2.7,80,0.00,,,0.00,WUHU216HW,2013-06-06 16:02:00,
2013-06-06 09:07:00,59.6,53.5,30.37,SSE,158,0.0,1.1,80,0.00,,,0.00,WUHU216HW,2013-06-06 16:07:00,
2013-06-06 09:12:00,59.9,53.8,30.37,North,0,0.7,1.1,80,0.00,,,0.00,WUHU216HW,2013-06-06 16:12:00,
2013-06-06 09:17:00,60.3,53.8,30.37,NNE,23,0.7,1.1,79,0.00,,,0.00,WUHU216HW,2013-06-06 16:17:00,
2013-06-06 09:22:00,60.7,54.2,30.37,NNE,23,0.0,1.1,79,0.00,,,0.00,WUHU216HW,2013-06-06 16:22:00,
2013-06-06 09:27:00,61.0,54.6,30.37,North,0,0.0,0.4,79,0.00,,,0.00,WUHU216HW,2013-06-06 16:27:00,
2013-06-06 09:32:00,61.4,54.5,30.37,SSW,203,0.4,1.3,78,0.00,,,0.00,WUHU216HW,2013-06-06 16:32:00,
2013-06-06 09:37:00,61.7,54.5,30.36,SE,135,1.3,1.3,77,0.00,,,0.00,WUHU216HW,2013-06-06 16:37:00,
2013-06-06 09:42:00,62.1,54.8,30.36,North,0,1.3,1.3,77,0.00,,,0.00,WUHU216HW,2013-06-06 16:42:00,
2013-06-06 09:47:00,62.5,54.7,30.36,SSE,158,3.4,3.4,76,0.00,,,0.00,WUHU216HW,2013-06-06 16:47:00,
2013-06-06 09:52:00,62.8,55.1,30.37,North,0,0.4,4.0,76,0.00,,,0.00,WUHU216HW,2013-06-06 16:52:00,
2013-06-06 09:57:00,63.0,55.3,30.37,North,0,0.4,4.0,76,0.00,,,0.00,WUHU216HW,2013-06-06 16:57:00,
2013-06-06 10:02:00,63.4,55.3,30.36,SSE,158,2.0,2.0,75,0.00,,,0.00,WUHU216HW,2013-06-06 17:02:00,
2013-06-06 10:07:00,63.7,55.6,30.36,SSW,203,0.2,2.0,75,0.00,,,0.00,WUHU216HW,2013-06-06 17:07:00,
2013-06-06 10:12:00,64.1,55.6,30.36,SSE,158,1.1,2.5,74,0.00,,,0.00,WUHU216HW,2013-06-06 17:12:00,
2013-06-06 10:17:00,64.6,55.8,30.36,NNW,338,0.7,2.5,73,0.00,,,0.00,WUHU216HW,2013-06-06 17:17:00,
2013-06-06 10:22:00,64.8,56.0,30.36,South,180,1.1,2.5,73,0.00,,,0.00,WUHU216HW,2013-06-06 17:22:00,
2013-06-06 10:28:00,65.0,55.8,30.36,North,0,0.0,2.0,72,0.00,,,0.00,WUHU216HW,2013-06-06 17:28:00,
2013-06-06 10:33:00,65.2,55.5,30.36,NNW,338,2.5,2.7,71,0.00,,,0.00,WUHU216HW,2013-06-06 17:33:00,
2013-06-06 10:38:00,65.5,56.3,30.36,SSE,158,1.3,2.7,72,0.00,,,0.00,WUHU216HW,2013-06-06 17:38:00,
2013-06-06 10:43:00,65.9,56.3,30.36,NE,45,0.9,1.8,71,0.00,,,0.00,WUHU216HW,2013-06-06 17:43:00,
2013-06-06 10:48:00,66.2,56.5,30.36,ESE,113,0.9,2.5,71,0.00,,,0.00,WUHU216HW,2013-06-06 17:48:00,
2013-06-06 10:53:00,66.6,56.5,30.36,ESE,113,0.7,2.5,70,0.00,,,0.00,WUHU216HW,2013-06-06 17:53:00,
2013-06-06 10:58:00,67.0,56.4,30.36,NE,45,3.6,3.6,69,0.00,,,0.00,WUHU216HW,2013-06-06 17:58:00,
2013-06-06 11:03:00,67.3,56.0,30.36,NNW,338,0.9,3.6,67,0.00,,,0.00,WUHU216HW,2013-06-06 18:03:00,
2013-06-06 11:08:00,67.7,56.4,30.36,SSE,158,0.0,2.0,67,0.00,,,0.00,WUHU216HW,2013-06-06 18:08:00,
2013-06-06 11:13:00,67.9,56.1,30.36,ENE,68,0.7,1.3,66,0.00,,,0.00,WUHU216HW,2013-06-06 18:13:00,
2013-06-06 11:18:00,68.0,56.3,30.36,WSW,248,1.1,3.8,66,0.00,,,0.00,WUHU216HW,2013-06-06 18:18:00,
2013-06-06 11:23:00,68.6,56.7,30.36,SSW,203,3.8,3.8,66,0.00,,,0.00,WUHU216HW,2013-06-06 18:23:00,
2013-06-06 11:28:00,68.8,56.5,30.36,South,180,2.5,3.8,65,0.00,,,0.00,WUHU216HW,2013-06-06 18:28:00,
2013-06-06 11:33:00,69.3,57.0,30.35,ENE,68,0.4,2.5,65,0.00,,,0.00,WUHU216HW,2013-06-06 18:33:00,
2013-06-06 11:38:00,69.5,55.9,30.35,NE,45,1.6,2.5,62,0.00,,,0.00,WUHU216HW,2013-06-06 18:38:00,
2013-06-06 11:43:00,69.8,56.7,30.35,North,0,1.3,2.5,63,0.00,,,0.00,WUHU216HW,2013-06-06 18:43:00,
2013-06-06 11:48:00,70.2,57.1,30.35,North,0,0.7,2.0,63,0.00,,,0.00,WUHU216HW,2013-06-06 18:48:00,
2013-06-06 11:53:00,70.9,56.9,30.35,WSW,248,1.6,1.6,61,0.00,,,0.00,WUHU216HW,2013-06-06 18:53:00,
2013-06-06 11:58:00,71.5,57.3,30.35,West,270,0.0,3.4,61,0.00,,,0.00,WUHU216HW,2013-06-06 18:58:00,
2013-06-06 12:03:00,72.0,57.8,30.35,South,180,1.1,3.4,61,0.00,,,0.00,WUHU216HW,2013-06-06 19:03:00,
2013-06-06 12:08:00,72.4,57.3,30.35,North,0,0.4,2.0,59,0.00,,,0.00,WUHU216HW,2013-06-06 19:08:00,
2013-06-06 12:13:00,72.7,57.5,30.35,North,0,1.1,2.0,59,0.00,,,0.00,WUHU216HW,2013-06-06 19:13:00,
2013-06-06 12:18:00,73.1,57.9,30.35,SW,225,2.7,2.7,59,0.00,,,0.00,WUHU216HW,2013-06-06 19:18:00,
2013-06-06 12:23:00,73.6,57.3,30.35,South,180,1.3,2.7,57,0.00,,,0.00,WUHU216HW,2013-06-06 19:23:00,
2013-06-06 12:28:00,74.2,57.4,30.35,North,0,1.8,2.5,56,0.00,,,0.00,WUHU216HW,2013-06-06 19:28:00,
2013-06-06 12:33:00,74.3,57.1,30.35,NNW,338,1.1,2.5,55,0.00,,,0.00,WUHU216HW,2013-06-06 19:33:00,
2013-06-06 12:34:00,74.5,57.2,30.35,NNW,338,0.0,2.5,55,0.00,,,0.00,WUHU216HW,2013-06-06 19:34:00,
2013-06-06 12:39:00,74.9,57.1,30.35,NW,315,1.1,4.5,54,0.00,,,0.00,WUHU216HW,2013-06-06 19:39:00,
2013-06-06 12:44:00,75.1,57.8,30.35,SSW,203,0.7,4.5,55,0.00,,,0.00,WUHU216HW,2013-06-06 19:44:00,
2013-06-06 12:49:00,75.4,58.2,30.35,North,0,0.9,3.6,55,0.00,,,0.00,WUHU216HW,2013-06-06 19:49:00,
2013-06-06 12:54:00,75.4,57.6,30.35,North,0,0.4,2.7,54,0.00,,,0.00,WUHU216HW,2013-06-06 19:54:00,
2013-06-06 12:59:00,75.6,57.8,30.35,SSW,203,1.8,3.1,54,0.00,,,0.00,WUHU216HW,2013-06-06 19:59:00,
2013-06-06 13:04:00,76.3,57.4,30.35,South,180,0.4,5.4,52,0.00,,,0.00,WUHU216HW,2013-06-06 20:04:00,
2013-06-06 13:09:00,76.7,57.8,30.34,SSE,158,2.2,5.4,52,0.00,,,0.00,WUHU216HW,2013-06-06 20:09:00,
2013-06-06 13:14:00,77.2,57.3,30.34,SW,225,3.4,3.6,50,0.00,,,0.00,WUHU216HW,2013-06-06 20:14:00,
2013-06-06 13:19:00,77.4,57.9,30.34,West,270,0.4,3.4,51,0.00,,,0.00,WUHU216HW,2013-06-06 20:19:00,
2013-06-06 13:24:00,77.8,57.1,30.34,SSE,158,1.8,2.5,49,0.00,,,0.00,WUHU216HW,2013-06-06 20:24:00,
2013-06-06 13:29:00,77.9,57.2,30.34,North,0,1.1,2.2,49,0.00,,,0.00,WUHU216HW,2013-06-06 20:29:00,
2013-06-06 13:34:00,77.9,56.6,30.33,SSE,158,3.4,3.4,48,0.00,,,0.00,WUHU216HW,2013-06-06 20:34:00,
2013-06-06 13:39:00,78.7,57.9,30.33,South,180,1.3,3.4,49,0.00,,,0.00,WUHU216HW,2013-06-06 20:39:00,
2013-06-06 13:44:00,79.2,57.8,30.33,WSW,248,2.5,3.4,48,0.00,,,0.00,WUHU216HW,2013-06-06 20:44:00,
2013-06-06 13:49:00,79.6,57.5,30.33,North,0,1.1,3.1,47,0.00,,,0.00,WUHU216HW,2013-06-06 20:49:00,
2013-06-06 13:54:00,79.6,55.6,30.33,WSW,248,1.3,2.2,44,0.00,,,0.00,WUHU216HW,2013-06-06 20:54:00,
2013-06-06 13:59:00,79.0,55.8,30.33,North,0,1.6,1.8,45,0.00,,,0.00,WUHU216HW,2013-06-06 20:59:00,
2013-06-06 14:04:00,78.8,56.3,30.33,NNW,338,1.3,1.8,46,0.00,,,0.00,WUHU216HW,2013-06-06 21:04:00,
2013-06-06 14:09:00,79.2,56.0,30.33,North,0,1.6,1.6,45,0.00,,,0.00,WUHU216HW,2013-06-06 21:09:00,
2013-06-06 14:14:00,79.4,56.1,30.33,SW,225,1.1,2.5,45,0.00,,,0.00,WUHU216HW,2013-06-06 21:14:00,
2013-06-06 14:19:00,79.6,56.3,30.33,SW,225,0.7,4.3,45,0.00,,,0.00,WUHU216HW,2013-06-06 21:19:00,
2013-06-06 14:23:00,79.7,54.6,30.33,NNW,338,2.5,4.3,42,0.00,,,0.00,WUHU216HW,2013-06-06 21:23:00,
2013-06-06 14:29:00,79.6,55.6,30.33,NW,315,1.8,3.8,44,0.00,,,0.00,WUHU216HW,2013-06-06 21:29:00,
2013-06-06 14:34:00,79.9,56.0,30.33,NNW,338,0.4,3.8,44,0.00,,,0.00,WUHU216HW,2013-06-06 21:34:00,
2013-06-06 14:39:00,80.1,56.2,30.33,SW,225,2.7,5.4,44,0.00,,,0.00,WUHU216HW,2013-06-06 21:39:00,
2013-06-06 14:44:00,79.9,54.7,30.33,South,180,2.5,5.4,42,0.00,,,0.00,WUHU216HW,2013-06-06 21:44:00,
2013-06-06 14:49:00,80.1,55.5,30.33,South,180,4.3,4.9,43,0.00,,,0.00,WUHU216HW,2013-06-06 21:49:00,
2013-06-06 14:54:00,80.6,54.2,30.33,NNW,338,0.4,4.9,40,0.00,,,0.00,WUHU216HW,2013-06-06 21:54:00,
2013-06-06 14:59:00,80.5,54.6,30.33,NNW,338,1.6,4.0,41,0.00,,,0.00,WUHU216HW,2013-06-06 21:59:00,
2013-06-06 15:04:00,80.6,54.2,30.32,SSW,203,0.9,4.9,40,0.00,,,0.00,WUHU216HW,2013-06-06 22:04:00,
2013-06-06 15:09:00,80.5,53.3,30.32,NW,315,0.9,4.9,39,0.00,,,0.00,WUHU216HW,2013-06-06 22:09:00,
2013-06-06 15:14:00,80.5,54.0,30.32,SSE,158,3.4,5.6,40,0.00,,,0.00,WUHU216HW,2013-06-06 22:14:00,
2013-06-06 15:19:00,80.6,54.2,30.32,SSE,158,3.6,5.6,40,0.00,,,0.00,WUHU216HW,2013-06-06 22:19:00,
2013-06-06 15:24:00,81.0,52.9,30.32,NW,315,1.3,4.7,38,0.00,,,0.00,WUHU216HW,2013-06-06 22:24:00,
2013-06-06 15:29:00,80.6,53.4,30.32,SE,135,0.9,4.7,39,0.00,,,0.00,WUHU216HW,2013-06-06 22:29:00,
2013-06-06 15:34:00,80.5,52.5,30.32,SSE,158,1.1,3.1,38,0.00,,,0.00,WUHU216HW,2013-06-06 22:34:00,
2013-06-06 15:39:00,80.3,52.3,30.32,South,180,2.0,4.7,38,0.00,,,0.00,WUHU216HW,2013-06-06 22:39:00,
2013-06-06 15:44:00,80.3,52.3,30.32,North,0,0.0,4.7,38,0.00,,,0.00,WUHU216HW,2013-06-06 22:44:00,
2013-06-06 15:49:00,80.1,49.9,30.32,NW,315,1.1,2.5,35,0.00,,,0.00,WUHU216HW,2013-06-06 22:49:00,
2013-06-06 15:54:00,79.6,49.3,30.32,West,270,0.2,2.7,35,0.00,,,0.00,WUHU216HW,2013-06-06 22:54:00,
2013-06-06 15:59:00,79.2,49.1,30.32,SW,225,1.6,2.7,35,0.00,,,0.00,WUHU216HW,2013-06-06 22:59:00,
2013-06-06 16:04:00,79.2,49.1,30.32,WSW,248,0.4,4.0,35,0.00,,,0.00,WUHU216HW,2013-06-06 23:04:00,
2013-06-06 16:09:00,79.4,49.1,30.32,NW,315,0.7,4.0,35,0.00,,,0.00,WUHU216HW,2013-06-06 23:09:00,
2013-06-06 16:14:00,79.4,50.8,30.32,NNW,338,0.4,1.3,37,0.00,,,0.00,WUHU216HW,2013-06-06 23:14:00,
2013-06-06 16:19:00,79.2,49.1,30.32,NNW,338,0.2,1.1,35,0.00,,,0.00,WUHU216HW,2013-06-06 23:19:00,
2013-06-06 16:24:00,78.8,48.7,30.32,WNW,293,0.0,1.8,35,0.00,,,0.00,WUHU216HW,2013-06-06 23:24:00,
2013-06-06 16:29:00,78.5,50.0,30.32,NNW,338,0.7,2.5,37,0.00,,,0.00,WUHU216HW,2013-06-06 23:29:00,
2013-06-06 16:34:00,78.5,50.0,30.32,North,0,0.7,2.5,37,0.00,,,0.00,WUHU216HW,2013-06-06 23:34:00,
2013-06-06 16:39:00,78.5,50.0,30.32,North,0,0.4,1.3,37,0.00,,,0.00,WUHU216HW,2013-06-06 23:39:00,
2013-06-06 16:44:00,78.5,50.0,30.32,NNW,338,0.7,2.5,37,0.00,,,0.00,WUHU216HW,2013-06-06 23:44:00,
2013-06-06 16:49:00,78.5,50.7,30.32,North,0,0.0,2.5,38,0.00,,,0.00,WUHU216HW,2013-06-06 23:49:00,
2013-06-06 16:54:00,78.3,51.3,30.32,North,0,2.2,2.2,39,0.00,,,0.00,WUHU216HW,2013-06-06 23:54:00,
2013-06-06 16:59:00,78.1,50.4,30.32,North,0,0.4,2.2,38,0.00,,,0.00,WUHU216HW,2013-06-06 23:59:00,
2013-06-06 17:04:00,77.8,50.9,30.32,North,0,1.1,1.1,39,0.00,,,0.00,WUHU216HW,2013-06-07 00:04:00,
2013-06-06 17:09:00,77.8,50.9,30.32,SSE,158,0.0,1.1,39,0.00,,,0.00,WUHU216HW,2013-06-07 00:09:00,
2013-06-06 17:14:00,77.8,49.3,30.32,North,0,0.4,2.2,37,0.00,,,0.00,WUHU216HW,2013-06-07 00:14:00,
2013-06-06 17:19:00,77.4,49.8,30.32,North,0,0.2,2.2,38,0.00,,,0.00,WUHU216HW,2013-06-07 00:19:00,
2013-06-06 17:24:00,77.4,49.8,30.32,North,0,0.4,1.8,38,0.00,,,0.00,WUHU216HW,2013-06-07 00:24:00,
2013-06-06 17:29:00,77.2,48.9,30.32,North,0,0.0,1.8,37,0.00,,,0.00,WUHU216HW,2013-06-07 00:29:00,
2013-06-06 17:34:00,77.0,48.7,30.32,North,0,1.8,1.8,37,0.00,,,0.00,WUHU216HW,2013-06-07 00:34:00,
2013-06-06 17:39:00,76.9,48.5,30.32,North,0,1.1,2.7,37,0.00,,,0.00,WUHU216HW,2013-06-07 00:39:00,
2013-06-06 17:44:00,76.7,49.2,30.32,North,0,0.4,2.7,38,0.00,,,0.00,WUHU216HW,2013-06-07 00:44:00,
2013-06-06 17:49:00,76.7,49.9,30.33,North,0,1.3,1.8,39,0.00,,,0.00,WUHU216HW,2013-06-07 00:49:00,
2013-06-06 17:54:00,76.5,49.7,30.32,NNE,23,0.7,1.8,39,0.00,,,0.00,WUHU216HW,2013-06-07 00:54:00,
2013-06-06 17:59:00,76.3,50.3,30.33,North,0,0.9,1.8,40,0.00,,,0.00,WUHU216HW,2013-06-07 00:59:00,
2013-06-06 18:04:00,76.5,50.5,30.32,North,0,0.0,2.9,40,0.00,,,0.00,WUHU216HW,2013-06-07 01:04:00,
2013-06-06 18:09:00,76.3,51.0,30.32,SSW,203,0.4,2.9,41,0.00,,,0.00,WUHU216HW,2013-06-07 01:09:00,
2013-06-06 18:14:00,76.3,51.0,30.32,North,0,1.1,1.3,41,0.00,,,0.00,WUHU216HW,2013-06-07 01:14:00,
2013-06-06 18:19:00,76.1,50.8,30.32,North,0,0.4,1.3,41,0.00,,,0.00,WUHU216HW,2013-06-07 01:19:00,
2013-06-06 18:24:00,76.0,50.6,30.32,NNE,23,0.0,1.3,41,0.00,,,0.00,WUHU216HW,2013-06-07 01:24:00,
2013-06-06 18:28:00,76.0,51.2,30.32,NNW,338,0.7,0.7,42,0.00,,,0.00,WUHU216HW,2013-06-07 01:28:00,
2013-06-06 18:34:00,76.0,51.9,30.32,North,0,1.1,1.3,43,0.00,,,0.00,WUHU216HW,2013-06-07 01:34:00,
2013-06-06 18:38:00,75.8,51.7,30.32,North,0,2.9,2.9,43,0.00,,,0.00,WUHU216HW,2013-06-07 01:38:00,
2013-06-06 18:44:00,75.6,51.5,30.32,North,0,0.4,2.9,43,0.00,,,0.00,WUHU216HW,2013-06-07 01:44:00,
2013-06-06 18:48:00,75.6,51.5,30.32,North,0,0.0,0.7,43,0.00,,,0.00,WUHU216HW,2013-06-07 01:48:00,
2013-06-06 18:53:00,75.2,51.8,30.32,North,0,1.6,1.6,44,0.00,,,0.00,WUHU216HW,2013-06-07 01:53:00,
2013-06-06 18:59:00,75.1,51.0,30.32,North,0,0.2,1.8,43,0.00,,,0.00,WUHU216HW,2013-06-07 01:59:00,
2013-06-06 19:04:00,74.9,50.2,30.32,North,0,1.6,1.8,42,0.00,,,0.00,WUHU216HW,2013-06-07 02:04:00,
2013-06-06 19:09:00,74.3,49.2,30.32,North,0,0.4,1.6,41,0.00,,,0.00,WUHU216HW,2013-06-07 02:09:00,
2013-06-06 19:14:00,74.0,48.8,30.32,North,0,1.6,1.6,41,0.00,,,0.00,WUHU216HW,2013-06-07 02:14:00,
2013-06-06 19:19:00,73.8,44.3,30.32,NE,45,0.4,2.2,35,0.00,,,0.00,WUHU216HW,2013-06-07 02:19:00,
2013-06-06 19:24:00,73.4,45.5,30.32,North,0,1.1,3.6,37,0.00,,,0.00,WUHU216HW,2013-06-07 02:24:00,
2013-06-06 19:29:00,73.3,46.8,30.33,North,0,0.7,3.6,39,0.00,,,0.00,WUHU216HW,2013-06-07 02:29:00,
2013-06-06 19:34:00,73.1,47.3,30.33,ENE,68,0.0,3.4,40,0.00,,,0.00,WUHU216HW,2013-06-07 02:34:00,
2013-06-06 19:39:00,72.7,48.2,30.33,North,0,0.0,2.7,42,0.00,,,0.00,WUHU216HW,2013-06-07 02:39:00,
2013-06-06 19:44:00,72.4,49.2,30.33,North,0,0.0,2.7,44,0.00,,,0.00,WUHU216HW,2013-06-07 02:44:00,
2013-06-06 19:49:00,72.0,49.4,30.33,NNW,338,0.7,2.7,45,0.00,,,0.00,WUHU216HW,2013-06-07 02:49:00,
2013-06-06 19:54:00,71.6,49.7,30.33,North,0,1.3,2.5,46,0.00,,,0.00,WUHU216HW,2013-06-07 02:54:00,
2013-06-06 19:59:00,71.3,49.3,30.33,NNW,338,1.3,2.5,46,0.00,,,0.00,WUHU216HW,2013-06-07 02:59:00,
2013-06-06 20:04:00,70.7,49.4,30.33,North,0,0.0,2.5,47,0.00,,,0.00,WUHU216HW,2013-06-07 03:04:00,
2013-06-06 20:09:00,70.2,49.0,30.33,NNW,338,0.0,1.8,47,0.00,,,0.00,WUHU216HW,2013-06-07 03:09:00,
2013-06-06 20:14:00,69.8,48.6,30.33,NNW,338,0.2,1.8,47,0.00,,,0.00,WUHU216HW,2013-06-07 03:14:00,
2013-06-06 20:19:00,69.7,48.4,30.33,North,0,1.3,1.8,47,0.00,,,0.00,WUHU216HW,2013-06-07 03:19:00,
2013-06-06 20:24:00,69.5,47.1,30.33,NNW,338,2.0,2.0,45,0.00,,,0.00,WUHU216HW,2013-06-07 03:24:00,
2013-06-06 20:29:00,69.1,45.0,30.33,North,0,1.3,2.0,42,0.00,,,0.00,WUHU216HW,2013-06-07 03:29:00,
2013-06-06 20:33:00,68.8,44.6,30.33,NNE,23,2.7,2.7,42,0.00,,,0.00,WUHU216HW,2013-06-07 03:33:00,
2013-06-06 20:38:00,68.4,44.9,30.33,North,0,0.9,2.7,43,0.00,,,0.00,WUHU216HW,2013-06-07 03:38:00,
2013-06-06 20:43:00,68.0,44.0,30.34,NNE,23,0.0,2.7,42,0.00,,,0.00,WUHU216HW,2013-06-07 03:43:00,
2013-06-06 20:48:00,67.7,43.8,30.34,NNW,338,0.9,2.7,42,0.00,,,0.00,WUHU216HW,2013-06-07 03:48:00,
2013-06-06 20:53:00,67.1,43.8,30.34,NNW,338,0.0,1.1,43,0.00,,,0.00,WUHU216HW,2013-06-07 03:53:00,
2013-06-06 20:58:00,66.6,43.9,30.34,NNE,23,0.0,0.4,44,0.00,,,0.00,WUHU216HW,2013-06-07 03:58:00,
2013-06-06 21:01:00,66.4,43.7,30.34,NNE,23,1.8,1.8,44,0.00,,,0.00,WUHU216HW,2013-06-07 04:01:00,
2013-06-06 21:02:00,66.2,43.6,30.34,NNE,23,0.7,1.8,44,0.00,,,0.00,WUHU216HW,2013-06-07 04:02:00,
2013-06-06 21:07:00,65.9,43.8,30.34,NNE,23,0.0,1.8,45,0.00,,,0.00,WUHU216HW,2013-06-07 04:07:00,
2013-06-06 21:12:00,65.7,44.3,30.34,ESE,113,0.4,0.7,46,0.00,,,0.00,WUHU216HW,2013-06-07 04:12:00,
2013-06-06 21:17:00,65.5,44.1,30.34,SSW,203,0.0,1.3,46,0.00,,,0.00,WUHU216HW,2013-06-07 04:17:00,
2013-06-06 21:22:00,65.3,43.9,30.34,WSW,248,0.0,1.3,46,0.00,,,0.00,WUHU216HW,2013-06-07 04:22:00,
2013-06-06 21:27:00,65.3,43.9,30.33,WSW,248,0.0,0.4,46,0.00,,,0.00,WUHU216HW,2013-06-07 04:27:00,
2013-06-06 21:32:00,65.0,43.6,30.33,WSW,248,0.0,0.4,46,0.00,,,0.00,WUHU216HW,2013-06-07 04:32:00,
2013-06-06 21:37:00,64.8,44.0,30.33,SSW,203,1.8,1.8,47,0.00,,,0.00,WUHU216HW,2013-06-07 04:37:00,
2013-06-06 21:42:00,64.4,43.7,30.34,SSW,203,0.0,1.8,47,0.00,,,0.00,WUHU216HW,2013-06-07 04:42:00,
2013-06-06 21:47:00,64.3,44.0,30.34,SSW,203,0.0,0.4,48,0.00,,,0.00,WUHU216HW,2013-06-07 04:47:00,
2013-06-06 21:52:00,64.1,43.9,30.34,SSW,203,0.0,0.4,48,0.00,,,0.00,WUHU216HW,2013-06-07 04:52:00,
2013-06-06 21:57:00,63.7,44.1,30.34,SSW,203,0.0,0.2,49,0.00,,,0.00,WUHU216HW,2013-06-07 04:57:00,
2013-06-06 22:02:00,63.4,44.4,30.34,SSW,203,0.0,0.0,50,0.00,,,0.00,WUHU216HW,2013-06-07 05:02:00,
2013-06-06 22:07:00,62.8,44.4,30.34,SSW,203,0.0,0.0,51,0.00,,,0.00,WUHU216HW,2013-06-07 05:07:00,
2013-06-06 22:12:00,62.5,44.1,30.34,SSW,203,0.0,0.0,51,0.00,,,0.00,WUHU216HW,2013-06-07 05:12:00,
2013-06-06 22:17:00,62.3,43.9,30.34,SSW,203,0.0,0.0,51,0.00,,,0.00,WUHU216HW,2013-06-07 05:17:00,
2013-06-06 22:22:00,62.3,43.9,30.34,SSW,203,0.0,0.0,51,0.00,,,0.00,WUHU216HW,2013-06-07 05:22:00,
2013-06-06 22:27:00,62.3,43.9,30.34,SSW,203,0.0,0.0,51,0.00,,,0.00,WUHU216HW,2013-06-07 05:27:00,
2013-06-06 22:32:00,62.3,43.9,30.34,SSW,203,0.0,0.0,51,0.00,,,0.00,WUHU216HW,2013-06-07 05:32:00,
2013-06-06 22:37:00,62.3,43.9,30.35,SSW,203,0.0,0.0,51,0.00,,,0.00,WUHU216HW,2013-06-07 05:37:00,
2013-06-06 22:42:00,62.3,43.9,30.35,SSW,203,0.0,0.0,51,0.00,,,0.00,WUHU216HW,2013-06-07 05:42:00,
2013-06-06 22:47:00,62.3,43.9,30.34,SSW,203,0.0,0.2,51,0.00,,,0.00,WUHU216HW,2013-06-07 05:47:00,
2013-06-06 22:52:00,62.1,43.7,30.34,SSW,203,0.0,0.7,51,0.00,,,0.00,WUHU216HW,2013-06-07 05:52:00,
2013-06-06 22:57:00,61.7,43.9,30.34,SSW,203,0.0,0.7,52,0.00,,,0.00,WUHU216HW,2013-06-07 05:57:00,
2013-06-06 23:02:00,61.6,43.7,30.35,SSW,203,0.0,0.4,52,0.00,,,0.00,WUHU216HW,2013-06-07 06:02:00,
2013-06-06 23:07:00,61.4,43.6,30.34,SSW,203,0.0,0.4,52,0.00,,,0.00,WUHU216HW,2013-06-07 06:07:00,
2013-06-06 23:12:00,61.2,43.9,30.34,SSW,203,0.0,0.2,53,0.00,,,0.00,WUHU216HW,2013-06-07 06:12:00,
2013-06-06 23:17:00,61.0,43.7,30.34,SSW,203,0.0,0.2,53,0.00,,,0.00,WUHU216HW,2013-06-07 06:17:00,
2013-06-06 23:22:00,60.8,43.6,30.34,SSW,203,0.0,0.0,53,0.00,,,0.00,WUHU216HW,2013-06-07 06:22:00,
2013-06-06 23:27:00,60.8,43.6,30.34,SSW,203,0.0,0.0,53,0.00,,,0.00,WUHU216HW,2013-06-07 06:27:00,
2013-06-06 23:32:00,60.7,43.9,30.34,SSW,203,0.0,0.0,54,0.00,,,0.00,WUHU216HW,2013-06-07 06:32:00,
2013-06-06 23:37:00,60.7,43.9,30.35,SSW,203,0.0,0.0,54,0.00,,,0.00,WUHU216HW,2013-06-07 06:37:00,
2013-06-06 23:42:00,60.5,43.8,30.35,SSW,203,0.0,0.0,54,0.00,,,0.00,WUHU216HW,2013-06-07 06:42:00,
2013-06-06 23:47:00,60.5,43.8,30.35,SSW,203,0.0,0.0,54,0.00,,,0.00,WUHU216HW,2013-06-07 06:47:00,
2013-06-06 23:52:00,60.5,43.8,30.35,SSW,203,0.0,0.0,54,0.00,,,0.00,WUHU216HW,2013-06-07 06:52:00,
2013-06-06 23:57:00,60.3,43.6,30.35,SSW,203,0.0,0.0,54,0.00,,,0.00,WUHU216HW,2013-06-07 06:57:00,